Theta_e
324 324 324 325 325 326 326 326 326 327 328 328 329 329 329 329 328 329 329 328 328 329 329 329 329 328 327 326 327 325 319 302 304 302 303 306 322 333 332 333 333 332 325 299 300 299 299 296 300 297 297 297 297 299 300 302 296 295 290 287 286 285 287 289 289 289 292 294 294 293 290 292 293 292 294 293 292 291 292 292 294 293 294 298 299 297 302 301
324 324 324 325 325 326 326 326 327 327 327 328 328 329 329 329 328 329 328 328 328 328 328 329 329 328 327 325 326 323 307 300 302 302 303 315 329 333 332 330 332 329 319 299 299 297 298 297 296 295 296 298 298 299 300 300 299 291 287 289 289 284 290 291 290 290 292 295 293 293 291 291 293 291 293 293 294 292 293 295 294 294 296 297 296 297 297 299
323 324 324 324 325 325 325 325 325 326 326 326 327 328 328 328 328 328 328 328 327 328 328 329 329 327 326 326 324 320 311 302 299 300 303 323 331 330 329 329 329 324 301 302 301 299 300 300 296 298 294 298 294 296 296 298 300 292 292 290 286 289 289 289 289 292 291 293 294 294 291 289 293 292 292 293 292 291 292 294 296 295 297 297 296 294 295 300
323 323 323 323 323 323 324 324 324 325 326 326 327 327 327 327 327 328 328 328 327 328 328 328 328 327 325 324 325 312 302 298 298 301 302 323 328 328 328 328 327 313 302 299 297 297 294 295 294 298 297 294 293 293 295 294 295 294 291 289 290 288 292 292 289 292 291 291 292 291 289 290 293 292 292 291 292 295 295 296 295 296 298 298 297 296 294 299
323 323 322 322 322 322 323 323 324 325 325 325 326 327 326 326 327 327 327 327 327 327 328 328 328 327 326 324 319 305 301 293 298 300 303 325 326 328 325 327 323 298 300 296 297 294 295 296 296 293 295 296 292 291 293 293 295 292 292 291 290 288 291 294 291 290 290 288 289 288 289 293 290 291 290 291 290 293 297 299 296 296 297 296 296 297 297 298
322 321 321 321 321 322 322 322 323 323 324 325 326 326 326 327 327 326 326 326 327 327 327 328 327 326 325 321 304 303 300 288 300 301 324 325 325 323 324 319 317 297 299 295 295 294 299 297 295 294 291 292 291 293 293 290 294 291 289 289 289 291 293 292 290 289 289 290 290 290 292 290 290 291 292 291 293 296 300 299 297 296 297 296 294 293 295 296
321 320 320 319 320 321 321 322 323 323 324 325 325 326 326 327 327 326 325 326 326 327 327 328 326 325 324 317 302 302 300 300 301 304 318 323 321 320 320 312 311 299 296 296 295 297 293 295 294 293 291 290 290 290 291 290 291 292 291 288 294 289 292 292 294 290 289 288 291 291 290 290 291 290 290 289 293 296 298 298 296 296 295 292 293 294 294 295
320 319 318 318 319 319 320 321 322 322 323 324 325 326 326 327 327 326 325 325 326 327 328 327 325 325 321 302 305 298 294 301 302 301 313 317 305 304 310 301 299 297 297 295 296 296 294 294 296 293 291 293 292 292 292 292 289 290 289 289 290 289 290 290 289 288 288 289 291 289 289 291 292 291 290 293 294 295 296 296 295 293 292 293 292 293 293 293
319 319 318 318 319 319 320 321 321 321 322 324 324 324 326 327 326 325 325 325 326 327 327 326 325 323 317 299 295 295 297 303 302 300 302 299 298 298 302 302 298 296 295 293 293 296 300 295 296 294 295 292 292 293 290 291 289 289 290 288 289 292 294 292 290 289 288 288 287 288 288 290 291 291 290 294 295 296 294 293 293 291 294 295 295 294 293 293
319 319 319 318 318 319 320 320 321 321 323 323 324 325 326 326 325 325 325 325 326 326 326 326 324 319 304 300 295 296 301 299 299 298 298 298 297 299 300 298 296 295 298 295 296 297 299 296 298 297 296 293 292 293 289 292 292 289 289 288 289 291 291 290 289 290 288 287 287 289 288 290 291 290 290 291 292 291 292 293 292 291 293 294 295 295 295 294
319 319 319 319 318 319 319 320 320 321 322 323 324 325 325 326 325 324 324 325 326 326 326 324 319 312 301 296 295 295 305 303 300 298 298 299 299 300 300 298 297 296 294 295 298 296 297 297 295 295 297 293 291 291 290 292 290 289 288 289 291 289 291 290 289 288 289 292 285 289 291 291 286 290 291 294 294 292 291 293 292 292 293 294 294 294 295 295
319 319 319 318 318 318 319 319 319 320 321 322 323 324 325 325 324 324 323 324 326 326 325 323 316 299 296 298 296 299 301 302 298 299 300 300 300 301 300 297 297 300 298 297 298 298 297 298 297 297 295 296 291 291 290 288 290 288 288 289 286 288 291 291 291 289 288 292 285 287 288 287 288 288 291 293 292 291 292 293 293 292 293 293 294 294 295 296
318 318 318 317 317 317 318 318 319 320 321 322 323 324 324 323 323 323 323 324 325 326 324 319 310 303 301 295 300 304 300 298 298 299 301 300 298 298 297 297 296 296 298 297 297 298 296 295 297 294 295 294 289 291 290 289 288 288 287 285 287 286 289 290 290 289 292 292 288 293 288 287 287 289 290 292 292 295 295 296 296 295 293 293 293 293 294 295
317 317 317 317 317 317 318 317 318 319 321 322 323 324 324 322 322 323 323 325 326 325 320 316 300 297 297 295 302 303 300 298 300 302 300 300 301 302 300 298 296 295 297 296 297 296 297 295 296 293 292 294 292 294 293 288 286 290 287 284 283 286 283 288 291 289 291 291 289 292 287 290 291 292 292 290 293 293 295 296 296 296 295 295 294 294 294 295
317 317 317 316 316 317 317 317 318 319 321 322 323 323 323 321 322 323 325 324 323 324 319 315 301 304 294 299 302 302 315 301 302 302 299 299 298 301 299 297 297 295 296 298 299 297 295 296 295 291 291 289 291 289 288 283 282 282 286 284 283 283 288 291 291 288 289 290 288 293 286 288 293 295 294 294 293 292 295 295 295 295 296 295 295 295 295 296
316 316 316 316 316 316 317 316 317 319 321 322 322 321 320 320 321 323 326 322 322 319 306 305 301 295 294 295 301 316 302 302 302 302 298 300 299 299 299 294 295 294 295 296 295 294 294 294 290 289 290 290 284 283 283 283 282 282 285 285 284 285 286 288 288 288 289 290 289 291 287 290 292 296 297 295 294 293 292 293 294 295 295 295 294 294 295 295
315 315 315 315 316 315 316 316 317 319 321 320 320 319 319 320 321 324 321 314 307 306 306 303 298 299 297 300 305 299 299 301 302 303 301 299 298 298 296 296 296 293 292 296 294 296 293 291 288 290 286 285 283 285 285 280 281 281 281 284 283 284 286 286 290 286 287 289 289 291 286 289 292 294 296 297 295 294 293 293 293 294 294 294 294 294 294 294
315 315 315 314 315 315 315 316 317 319 320 319 318 318 316 321 319 321 312 307 302 303 303 301 299 298 298 298 297 298 299 298 302 301 298 300 294 294 295 296 293 291 289 295 294 293 292 294 288 289 287 286 285 287 283 280 283 283 283 282 284 282 283 286 284 288 290 286 287 288 288 290 292 294 294 295 294 292 292 293 292 293 293 293 292 293 293 293
315 315 314 314 314 314 315 315 318 319 319 319 320 319 319 317 301 299 299 300 296 296 297 295 296 292 289 297 297 298 301 302 300 300 301 298 299 295 294 293 291 293 292 290 292 291 290 286 288 285 286 287 287 285 284 286 283 284 283 283 282 282 285 284 287 289 286 288 288 287 288 289 291 292 294 295 294 291 292 292 292 292 292 292 291 291 292 292
314 314 314 314 314 314 314 316 319 319 319 312 308 302 297 297 293 290 296 298 294 294 293 294 295 294 298 298 299 302 303 299 300 299 297 297 299 294 293 291 292 291 287 289 289 288 288 283 281 284 286 287 285 285 286 285 285 284 284 283 283 283 285 287 287 288 286 288 288 288 288 289 290 292 293 294 293 292 291 291 291 291 291 291 290 290 290 291
313 314 314 313 313 314 314 317 319 317 316 308 302 294 290 290 287 286 289 295 294 293 297 296 296 297 299 298 298 297 295 297 296 296 297 298 294 294 291 291 289 292 286 285 288 289 284 282 281 280 286 286 286 284 284 285 284 285 284 283 284 283 284 288 288 287 286 287 287 288 287 289 290 292 292 292 291 290 290 290 290 290 290 290 289 289 289 290
313 313 313 313 313 313 315 317 318 315 313 305 304 295 293 292 293 291 294 293 296 295 293 295 294 297 297 298 299 296 293 291 296 295 297 298 294 293 291 289 286 289 285 284 286 286 283 281 283 284 286 283 282 283 284 286 286 283 284 283 282 285 285 289 287 287 286 287 286 288 286 288 290 290 291 290 289 290 290 291 290 290 290 290 289 288 288 289
313 313 313 313 312 313 315 317 316 313 305 305 300 298 298 302 296 293 299 291 291 294 295 295 298 294 297 297 295 296 292 290 291 294 296 295 292 292 290 287 285 284 284 283 286 282 281 279 282 284 283 285 283 282 282 282 283 284 284 283 283 284 283 282 288 288 287 285 283 286 284 286 289 289 288 289 289 290 290 291 291 291 290 289 288 287 287 288
312 312 312 312 312 313 315 316 313 309 305 306 306 303 303 299 296 298 296 291 290 292 294 296 298 296 295 297 297 294 292 293 290 292 296 293 290 291 288 287 284 284 287 283 287 284 283 287 286 283 282 286 286 282 284 283 284 281 283 283 282 283 284 283 284 285 287 287 286 284 283 283 286 285 287 290 290 290 290 290 289 289 290 290 289 288 288 288
312 311 311 312 312 314 314 314 307 305 305 307 304 307 300 297 297 298 295 288 287 288 295 297 295 294 296 299 295 296 291 290 293 292 292 293 291 289 288 287 287 283 285 283 284 283 283 283 284 285 284 283 285 283 284 285 283 281 280 284 284 283 283 283 284 283 282 282 282 283 277 278 283 285 286 288 288 287 289 287 285 285 288 287 285 286 288 289
311 311 311 311 313 314 315 298 300 307 305 303 307 304 298 298 295 294 287 282 284 285 294 294 300 297 300 296 294 290 292 290 294 293 296 295 294 291 288 286 287 285 283 285 285 284 283 283 285 286 284 283 282 283 284 285 282 282 284 283 284 283 282 282 282 282 277 276 282 284 277 274 283 283 285 287 286 285 285 284 283 283 286 286 284 286 287 288
311 310 311 312 313 314 299 292 305 306 297 303 308 306 302 300 296 298 291 283 283 289 291 295 296 295 298 294 293 290 287 286 290 291 290 294 293 293 287 281 282 284 285 283 279 278 285 285 284 283 283 282 282 281 284 284 282 281 284 283 283 282 282 282 282 281 280 283 285 283 282 277 276 284 285 285 283 282 281 281 282 282 283 285 284 285 287 288
310 310 310 312 312 312 300 303 302 302 300 307 307 303 302 299 295 296 289 279 278 292 291 291 295 300 298 293 289 288 288 288 287 290 290 291 293 287 287 283 284 282 285 283 276 279 284 284 283 282 281 280 282 284 284 284 285 283 285 283 283 283 283 282 281 280 280 279 276 279 282 275 275 280 284 284 281 279 279 279 280 281 283 284 284 286 287 288
309 310 311 312 312 311 310 307 306 305 308 308 305 302 301 295 293 288 286 279 289 285 300 292 302 297 291 292 288 284 288 288 287 289 289 289 292 289 285 285 283 284 282 284 281 281 285 284 284 284 282 282 283 283 282 284 281 283 284 283 283 282 282 282 279 279 279 275 273 278 281 274 275 280 279 280 279 276 278 278 279 280 282 284 285 286 287 287
309 309 311 312 306 301 299 307 307 307 308 305 303 303 304 298 291 286 282 276 289 287 292 293 295 290 286 289 284 286 289 286 286 287 285 286 289 292 288 288 285 285 286 281 283 282 283 285 288 284 283 284 281 283 282 283 284 284 282 281 282 281 281 280 279 277 273 270 273 279 279 276 269 277 276 278 276 277 277 278 280 281 282 283 284 284 285 285
309 309 311 309 298 299 297 296 305 307 307 304 305 304 299 288 285 281 274 283 288 289 292 290 290 287 284 286 285 282 285 283 285 283 284 286 285 287 286 287 286 280 278 277 280 281 284 283 286 286 286 285 283 284 283 281 282 281 278 278 279 276 276 276 267 271 266 268 274 274 276 276 267 272 278 279 279 278 278 277 278 279 281 282 282 283 284 285
308 310 310 302 300 302 295 292 301 307 307 306 303 289 286 287 285 284 281 292 287 287 285 286 285 283 284 283 284 282 284 283 284 283 282 280 280 282 282 281 280 276 276 277 277 279 279 281 283 285 288 285 283 280 282 281 281 280 279 279 273 268 270 264 266 263 267 270 273 276 276 271 272 278 280 278 278 278 279 279 279 280 280 281 282 282 284 285
308 310 308 304 306 305 308 308 308 308 308 305 293 285 283 282 278 284 285 286 288 288 287 287 286 286 283 284 282 283 283 284 283 282 283 282 280 281 282 282 282 281 277 278 278 274 276 279 282 284 285 285 282 278 277 276 278 278 278 275 266 266 261 263 265 265 267 271 276 274 275 271 276 277 280 278 278 279 279 280 281 281 281 281 282 283 283 284
309 308 303 302 304 306 308 308 309 308 308 299 292 287 285 280 280 290 284 284 290 284 286 285 285 282 283 285 282 284 283 283 281 282 281 281 278 280 280 280 281 281 280 278 277 274 270 271 280 281 280 283 281 279 279 277 276 279 280 276 268 265 264 261 262 262 263 267 271 275 268 265 269 275 277 277 278 280 281 281 282 282 281 282 282 283 284 284
308 302 302 302 304 307 307 308 309 308 300 287 282 283 282 282 282 282 283 282 281 284 286 285 284 282 282 281 281 281 282 281 282 281 279 280 279 279 279 280 281 282 280 277 275 274 276 274 280 282 283 280 280 281 282 278 276 278 278 277 271 266 273 265 265 264 263 267 266 267 271 273 274 279 278 279 279 280 281 281 280 280 281 281 281 282 282 283
306 302 306 307 307 307 306 307 308 303 291 284 283 280 282 283 285 283 286 284 287 287 285 283 283 282 281 279 280 282 286 283 282 281 279 280 280 280 280 280 281 282 280 277 276 268 275 274 281 282 281 278 279 280 279 279 265 275 273 268 272 276 276 267 267 269 266 265 266 271 271 274 276 278 277 278 278 278 279 279 279 279 280 281 281 281 281 282
297 300 300 300 304 306 306 308 306 295 288 283 281 279 282 279 286 283 291 288 287 282 282 283 283 282 282 280 282 281 283 283 283 279 278 279 280 281 281 282 281 280 281 279 275 278 272 274 280 280 280 282 278 278 279 279 278 274 267 272 277 279 276 265 259 261 262 260 262 270 267 269 269 265 275 276 275 277 277 277 278 279 280 279 280 280 281 281
297 300 303 300 300 300 305 307 301 292 287 284 281 287 282 285 285 285 285 285 286 286 283 282 285 285 283 281 281 282 283 281 278 281 279 281 279 284 282 280 281 280 279 280 275 276 278 270 277 278 280 281 278 278 277 279 278 274 273 278 270 261 261 269 260 255 258 259 262 266 269 269 271 269 273 273 274 275 276 277 277 278 278 279 279 280 280 281
296 292 289 295 301 307 308 305 300 292 287 283 280 283 284 283 283 283 286 287 287 284 284 283 284 285 283 282 281 281 281 281 280 281 278 281 278 283 282 280 281 279 279 280 280 279 279 269 274 277 277 278 278 275 268 272 277 277 275 274 276 270 267 259 265 260 263 261 261 261 266 264 271 270 273 273 275 275 276 276 277 278 278 278 278 279 279 280
295 289 284 299 304 307 305 302 293 289 284 281 280 282 283 284 284 285 286 289 287 286 285 283 285 283 285 284 282 283 282 280 280 281 279 281 282 284 280 280 279 279 279 279 278 280 273 278 266 275 276 276 271 276 272 273 267 271 271 271 271 269 272 270 268 261 261 256 256 260 260 265 270 275 275 275 276 276 276 276 277 278 278 278 279 279 279 280
293 287 285 302 304 302 301 295 290 285 282 281 282 281 283 285 288 289 288 289 290 291 288 285 284 284 284 282 283 282 281 280 281 280 280 280 281 278 281 280 280 279 279 279 277 276 266 273 268 274 273 273 273 276 276 275 275 273 271 270 270 266 262 261 260 268 258 258 255 258 259 268 272 277 276 276 277 277 278 277 277 277 278 278 279 279 280 280
288 284 286 302 300 300 295 288 287 284 283 283 284 284 286 295 289 289 289 289 290 289 289 286 286 285 283 284 284 282 282 281 281 280 280 280 281 280 280 278 279 279 275 274 275 278 274 271 270 268 272 273 276 276 278 276 276 275 273 272 275 272 270 259 260 260 265 268 267 266 263 265 276 276 277 277 277 278 277 277 277 277 277 278 279 280 280 281
288 285 298 301 301 300 292 286 287 288 285 284 287 287 289 289 290 291 291 290 289 290 288 288 287 285 285 285 284 282 283 282 281 282 279 280 279 280 278 276 278 277 277 276 274 278 282 263 262 272 273 275 272 274 275 275 275 273 274 274 273 271 272 268 266 270 267 267 264 264 263 268 276 275 275 277 278 278 278 277 276 277 278 278 279 279 280 280
290 292 295 300 299 299 292 286 284 285 286 289 288 288 291 290 290 288 288 289 290 287 287 286 286 287 285 283 283 283 284 281 283 281 280 280 279 279 277 276 278 278 276 275 272 278 267 272 270 263 264 268 270 272 272 273 273 272 271 273 274 275 273 272 270 269 261 266 267 263 258 264 273 277 277 277 277 276 276 277 277 277 278 279 279 280 280 281
295 295 296 298 300 296 290 290 288 285 287 289 288 286 286 287 290 291 290 288 287 286 285 284 286 284 282 283 283 282 283 282 278 283 281 280 279 280 277 277 278 276 278 281 287 278 272 271 267 262 261 261 262 262 262 263 268 272 273 272 274 273 271 267 260 262 263 267 268 262 262 269 274 276 275 275 275 275 276 277 278 278 278 278 279 280 280 281
289 284 294 290 296 295 293 290 290 288 286 285 285 287 288 286 286 285 289 288 286 285 284 283 281 281 280 282 281 281 282 283 281 279 279 278 278 278 279 277 276 278 282 284 284 280 267 273 272 270 265 264 268 270 273 275 271 269 270 272 272 273 273 270 265 262 263 266 264 266 267 268 270 272 273 274 275 274 275 276 276 277 279 280 280 280 280 280
293 286 287 284 293 294 291 289 286 287 285 288 284 286 284 287 287 285 290 286 286 285 283 283 282 281 280 281 280 279 281 280 280 280 279 279 279 278 279 278 277 279 283 283 283 274 269 268 273 272 271 272 273 272 273 275 270 271 271 271 273 272 270 265 263 263 269 265 262 270 271 267 269 271 273 273 274 275 275 276 277 278 279 279 280 280 281 279
287 289 292 293 291 286 288 288 289 288 287 288 286 287 285 285 284 283 287 288 283 285 284 280 279 283 282 281 281 278 278 279 277 277 278 279 277 279 278 279 276 282 283 278 281 275 271 264 269 273 272 274 274 273 274 272 273 272 272 273 272 273 271 267 266 270 270 263 263 268 270 268 270 272 274 274 275 275 276 277 278 279 279 279 278 278 277 277
292 288 291 294 290 291 291 292 291 289 288 288 286 286 284 284 283 286 284 283 283 282 284 279 279 280 282 283 282 279 278 274 276 277 276 276 277 276 274 275 278 277 279 277 278 276 270 266 270 272 269 272 272 273 274 272 272 272 272 273 273 272 271 271 270 272 271 268 270 270 270 270 272 273 274 275 276 276 277 278 279 278 277 277 277 276 276 276
288 288 286 291 290 287 289 290 290 289 287 289 284 286 286 286 284 285 284 283 281 282 282 281 280 281 282 281 282 279 279 281 279 276 278 277 276 277 274 276 275 278 278 276 277 276 274 267 275 271 266 267 271 274 273 272 271 270 272 273 273 273 272 272 271 271 271 270 271 270 269 269 273 275 275 276 277 278 278 277 277 276 276 275 275 275 275 274
296 295 294 288 286 286 286 287 288 288 286 286 285 287 286 286 285 287 285 288 285 282 281 281 282 281 281 280 281 281 283 281 280 281 280 280 276 279 274 274 279 276 277 275 277 274 277 268 272 268 263 265 270 270 272 272 271 270 270 271 271 271 268 270 267 270 268 267 269 269 267 268 273 276 276 276 277 276 275 276 275 275 275 274 274 274 272 271
293 295 295 294 287 291 286 287 286 287 284 288 287 288 287 286 287 288 283 288 286 286 284 284 283 281 279 278 279 281 282 281 282 282 282 281 281 280 281 280 279 277 276 275 278 274 275 269 263 261 263 265 270 270 269 269 267 264 266 270 272 272 273 272 272 272 272 272 268 265 267 273 274 275 274 275 275 275 275 274 273 273 274 275 273 272 271 270
Wind_Speed
18 19 19 20 20 20 19 19 19 19 19 20 19 18 17 18 16 13 13 14 16 15 12 11 8 7 7 8 9 10 7 3 6 7 11 2 2 7 10 11 12 14 8 3 6 4 3 7 8 10 3 2 2 1 1 2 2 2 2 4 1 3 4 6 6 9 1 2 7 3 1 4 14 1 3 1 3 4 6 9 5 5 11 10 6 3 1 2
18 19 19 19 19 20 20 20 21 21 20 20 20 18 18 18 16 13 15 15 15 16 14 12 10 6 6 6 8 7 4 4 10 10 4 2 7 7 9 10 11 12 6 2 4 3 2 6 4 6 5 2 1 0 1 0 1 2 2 1 5 6 6 7 6 6 0 8 6 8 1 2 13 3 2 5 6 3 12 12 2 9 11 8 10 13 11 9
19 19 19 20 21 21 22 23 22 22 21 21 19 18 17 16 15 14 13 14 15 14 14 13 11 8 5 6 7 4 1 1 5 9 0 5 7 7 8 9 9 8 4 1 1 2 1 1 1 2 4 0 6 1 3 1 1 0 3 2 6 8 5 6 4 4 8 3 10 11 4 1 13 4 0 2 10 7 11 11 10 5 12 9 4 6 8 6
19 19 19 20 21 21 21 23 24 23 22 20 20 18 17 14 15 15 14 12 13 12 14 13 11 10 9 6 4 1 2 5 6 2 1 8 8 8 9 9 9 5 0 7 2 2 2 4 7 4 1 4 4 2 2 2 2 1 2 3 3 4 1 3 7 7 7 1 4 6 5 9 9 2 0 1 11 13 8 6 7 9 12 12 11 7 7 6
19 19 20 21 21 21 22 23 23 23 22 21 21 18 15 14 15 15 14 14 13 13 12 13 12 12 10 7 2 2 4 3 1 1 3 8 9 9 9 7 8 4 4 4 1 6 7 6 1 6 4 2 4 3 1 2 2 3 6 4 3 2 3 5 6 5 3 1 2 6 10 11 4 4 3 2 4 11 9 9 2 7 11 11 13 12 6 9
19 20 20 21 21 22 22 22 23 23 23 22 20 20 17 13 14 15 16 16 15 15 11 12 11 13 13 3 5 2 1 2 1 2 7 9 10 10 7 7 6 2 1 6 2 3 4 6 4 3 4 2 1 2 3 1 1 3 3 4 3 5 4 1 2 4 3 1 5 5 6 7 4 8 4 5 11 10 11 10 8 9 11 10 8 7 10 10
19 20 20 21 21 22 21 22 23 23 23 22 21 20 19 18 13 16 16 17 17 14 13 11 10 13 15 4 3 10 9 1 1 3 8 9 9 8 4 5 6 7 6 5 7 2 3 4 5 0 1 1 1 0 2 3 3 2 6 3 8 5 9 4 3 2 2 4 7 4 8 9 10 13 2 4 10 15 15 13 9 9 9 6 7 8 8 10
19 19 20 20 20 20 21 21 22 23 23 22 21 20 20 19 16 17 17 18 16 14 11 11 10 10 12 2 1 4 4 0 4 2 8 8 7 9 1 4 9 4 10 5 1 2 0 4 2 1 1 1 2 1 2 3 1 2 5 2 7 2 5 3 3 5 6 8 11 5 4 12 8 5 7 12 11 12 13 8 7 8 9 8 6 10 9 9
18 19 17 17 18 18 20 21 22 23 22 22 22 21 19 19 18 18 17 17 14 13 12 9 9 9 2 5 6 5 3 2 3 5 5 6 7 8 8 4 6 7 3 3 3 2 1 2 0 3 2 0 1 1 1 1 4 3 6 3 8 12 12 4 5 5 4 4 4 2 8 14 12 6 5 14 11 8 4 6 7 9 10 11 11 11 9 10
16 16 16 17 18 19 21 22 22 23 22 22 21 20 18 18 19 19 16 14 14 12 10 8 11 7 5 3 3 7 1 4 2 3 4 4 5 7 9 3 3 3 2 4 2 4 2 2 2 2 3 2 1 1 1 1 2 2 5 5 7 17 13 3 2 3 4 4 7 7 4 9 6 6 7 2 7 4 8 6 8 9 10 11 10 10 10 10
15 15 17 17 19 19 22 22 23 23 23 22 22 21 18 17 18 18 16 14 13 9 7 8 9 6 1 3 4 5 0 3 1 3 6 5 8 8 4 4 1 3 7 3 2 2 1 1 3 2 0 1 2 1 1 1 1 1 2 8 10 11 9 4 1 0 4 2 9 7 7 6 7 2 7 4 5 7 9 10 8 7 9 10 10 10 9 10
14 15 17 18 18 20 21 22 22 22 22 22 22 20 16 15 18 19 17 13 11 7 4 5 5 3 4 9 7 2 3 2 2 1 5 8 4 2 2 1 2 2 2 1 1 2 1 1 4 0 0 1 2 1 0 3 0 2 2 5 8 12 13 4 4 3 3 3 5 7 2 3 1 4 7 6 5 8 10 9 7 6 6 8 9 8 9 9
13 14 16 17 18 20 21 22 22 23 23 23 22 23 21 17 17 19 17 9 6 5 2 5 4 3 2 4 1 3 2 1 1 6 7 6 2 2 4 3 4 2 2 3 1 1 4 3 2 3 0 1 0 2 1 2 2 1 2 1 6 8 11 4 1 3 8 1 3 6 10 5 7 11 9 6 9 12 14 16 11 9 7 7 7 7 8 9
12 13 14 17 18 20 19 21 21 22 23 22 24 25 23 21 15 14 13 8 6 2 6 3 2 3 2 1 3 3 1 0 2 9 8 7 6 3 0 4 4 3 3 3 2 2 2 0 4 4 1 1 1 3 0 3 4 1 2 3 2 8 5 7 7 6 7 2 9 4 7 12 5 7 6 2 6 9 15 17 18 14 12 10 9 9 9 9
12 12 14 17 18 18 19 20 20 22 22 23 24 24 21 22 16 12 9 3 3 3 5 3 4 1 4 0 2 5 1 1 7 3 3 7 4 3 6 4 5 5 2 3 2 0 1 3 3 3 0 0 0 3 3 3 5 2 5 5 3 4 9 12 5 3 7 3 7 11 6 5 15 13 1 2 4 5 13 16 15 14 13 12 10 11 11 9
13 13 14 15 17 19 19 20 19 21 23 25 22 27 24 19 13 9 4 3 3 6 1 1 5 5 6 2 0 2 3 3 5 3 2 2 3 1 4 5 1 4 3 2 3 2 4 7 7 1 1 1 7 3 5 5 4 5 5 6 7 3 7 14 1 2 6 7 1 7 11 15 17 10 11 4 6 2 2 10 15 13 12 10 9 9 8 10
12 14 15 16 17 19 19 19 20 22 22 23 25 26 25 15 11 7 5 3 2 1 3 1 1 0 1 2 1 2 2 2 4 2 5 2 0 1 4 4 1 4 3 2 3 1 4 2 1 1 5 6 1 2 6 7 7 6 4 4 3 7 10 10 6 3 6 8 13 6 4 12 17 17 15 16 9 13 15 12 11 10 9 9 9 9 9 10
12 13 15 17 18 19 18 19 21 22 22 23 23 20 18 19 10 4 2 4 2 5 5 2 1 3 0 4 2 3 1 4 7 6 2 2 3 2 3 1 2 2 3 1 3 2 4 1 4 2 2 4 7 9 8 4 3 6 7 6 8 3 6 12 8 6 13 1 6 13 12 18 17 12 11 9 6 10 15 14 10 10 9 9 9 9 10 11
11 12 15 16 18 18 18 19 20 21 22 21 16 15 5 5 2 3 5 6 3 6 3 4 6 1 2 3 5 5 3 3 3 2 4 3 2 2 2 1 3 4 3 4 0 5 4 2 4 7 8 9 8 4 1 4 3 7 5 6 5 11 6 4 7 7 6 14 11 9 16 23 26 16 15 16 10 7 9 8 10 9 9 9 10 10 11 11
10 12 14 15 18 18 18 18 19 21 20 12 12 9 7 9 8 2 12 8 6 1 3 3 1 3 4 2 4 6 3 2 2 3 2 1 2 2 1 2 3 6 5 3 9 3 1 8 3 1 4 6 3 2 3 4 4 3 2 2 8 9 13 1 4 2 7 11 10 14 21 24 25 16 17 15 13 11 8 9 9 8 8 9 10 11 11 13
10 12 13 15 17 17 17 18 17 20 15 5 5 8 4 1 2 4 6 10 1 2 1 2 3 2 2 1 3 4 2 1 1 4 3 1 1 0 4 6 9 9 4 1 2 3 6 8 1 5 2 3 4 2 2 0 0 1 6 4 9 6 12 9 8 3 5 8 13 14 20 30 24 16 16 13 11 8 7 10 8 9 9 8 11 12 12 9
10 11 13 14 16 16 17 16 12 17 8 5 8 7 3 1 0 1 1 5 4 0 0 3 1 2 3 4 2 3 5 1 1 7 5 4 4 4 6 6 2 3 4 6 4 9 8 4 2 3 1 1 2 2 1 0 4 4 3 5 7 8 7 11 1 3 5 9 15 17 19 27 21 13 16 8 4 4 10 10 7 10 10 10 12 11 11 12
9 11 13 14 16 16 16 12 7 13 6 8 6 3 2 1 1 2 0 1 5 2 0 1 1 3 1 2 0 2 1 5 1 6 7 4 5 4 0 4 4 1 2 4 5 4 6 5 4 1 2 1 1 3 3 2 1 2 7 6 8 5 8 13 17 13 6 5 5 11 12 22 14 5 13 4 5 6 10 11 10 8 12 12 12 10 11 14
9 11 13 14 15 15 15 5 2 7 8 8 7 2 1 1 1 1 1 1 3 6 1 1 1 1 4 0 1 1 2 0 1 6 6 4 2 1 3 1 1 1 0 1 1 1 7 10 1 2 3 3 3 3 4 3 7 2 2 3 4 8 8 3 12 17 19 2 7 5 12 17 8 10 13 8 9 15 9 12 16 14 8 6 5 8 12 12
9 11 12 14 15 15 13 3 6 4 0 2 2 1 2 1 0 1 1 3 0 3 1 2 3 2 2 1 2 0 1 1 0 2 2 2 1 1 0 0 1 1 1 1 1 2 8 4 1 2 3 5 2 6 1 1 6 5 2 1 4 6 9 11 13 15 14 13 5 8 12 15 12 6 15 8 9 11 8 14 15 14 10 9 12 12 11 11
9 11 13 13 15 16 9 1 1 2 3 2 1 2 2 1 1 1 2 3 2 1 2 2 1 0 1 0 3 1 1 1 1 1 1 1 1 1 1 0 1 2 1 0 3 3 4 1 3 1 3 4 4 0 4 1 3 1 2 1 3 4 4 8 13 10 12 13 3 10 6 18 14 9 8 5 10 10 9 12 13 14 9 8 7 8 10 12
9 10 12 13 14 13 0 1 0 2 2 1 1 0 1 0 1 1 1 4 1 1 1 1 1 0 2 1 0 1 2 0 1 2 2 2 0 1 1 4 2 1 0 1 4 3 0 2 4 4 4 4 3 2 2 1 2 2 3 3 3 4 9 10 8 7 10 6 9 5 8 9 15 2 4 2 11 8 12 13 14 13 8 6 5 6 9 10
8 10 11 12 11 10 3 3 2 2 1 1 1 2 1 0 2 1 1 3 1 1 0 1 0 1 1 2 4 1 1 1 1 0 1 3 0 3 2 2 1 3 0 1 4 3 1 2 3 5 4 3 2 1 3 1 0 1 5 3 5 5 7 7 6 10 8 6 9 1 4 3 5 4 9 12 7 11 10 13 13 14 12 9 7 5 11 11
8 9 10 10 6 7 3 3 3 3 1 2 0 2 1 1 1 3 4 0 1 1 1 1 1 0 6 2 3 2 2 4 0 1 5 1 4 1 1 0 1 0 1 4 7 2 1 1 2 3 2 0 2 1 0 2 5 4 5 1 2 3 4 5 5 9 8 3 8 2 2 4 12 10 5 5 8 12 11 12 11 11 10 7 11 11 15 14
7 8 8 9 3 1 2 2 3 1 1 0 2 2 2 1 2 1 5 4 1 1 1 1 0 3 2 1 1 6 1 2 1 6 4 1 7 6 2 1 2 0 1 4 0 6 3 4 5 5 1 2 3 1 2 5 2 4 1 6 7 5 4 2 4 2 4 6 2 3 3 5 11 4 3 4 6 3 6 9 13 18 16 13 15 18 19 19
6 7 7 6 1 0 1 1 1 2 0 2 2 1 1 3 1 3 2 4 1 2 1 2 2 5 2 1 2 2 2 1 4 4 2 5 3 4 2 1 4 4 4 3 1 6 5 2 2 1 2 0 3 3 3 3 3 7 5 2 7 7 5 3 2 3 0 6 8 2 4 7 12 3 7 8 5 7 9 12 14 14 13 13 15 17 18 17
5 5 6 3 1 1 0 1 1 1 3 3 2 2 3 5 3 4 5 2 2 2 1 2 1 1 2 1 2 2 0 4 1 3 3 2 2 6 7 2 3 5 5 2 2 7 5 4 1 2 2 4 1 4 2 6 11 11 7 7 7 7 7 5 1 5 6 11 4 6 10 13 9 10 3 4 13 11 7 10 15 14 15 19 24 28 24 20
4 4 6 3 1 2 1 1 1 1 3 3 1 3 1 4 5 3 2 2 2 1 2 2 1 1 1 2 2 0 1 1 1 2 2 0 5 1 1 2 1 3 3 1 1 4 5 2 3 2 3 3 2 6 6 7 5 5 3 2 4 6 4 8 8 4 6 7 7 5 6 10 11 1 4 5 3 6 11 16 14 18 24 26 23 21 19 19
5 1 3 2 1 1 0 0 1 1 3 1 1 4 7 0 7 3 1 3 4 2 2 1 1 1 0 4 1 0 1 1 3 1 1 0 3 1 0 2 2 2 2 2 2 1 1 3 1 1 0 3 5 5 4 5 3 2 2 3 3 4 1 7 2 5 7 14 23 12 3 4 4 1 6 2 1 10 17 18 16 15 17 19 18 17 17 17
3 4 4 2 2 2 3 2 2 1 4 1 5 2 3 8 2 3 3 3 2 1 0 1 0 1 4 0 1 2 3 1 1 0 1 1 1 3 2 0 4 2 1 1 1 1 2 4 1 2 0 3 2 1 2 2 4 3 2 4 4 3 4 6 3 2 6 15 16 5 6 5 5 0 2 8 12 17 17 12 7 15 17 17 15 14 16 17
2 0 2 2 2 3 2 3 2 4 3 4 2 3 9 6 4 2 2 2 1 0 1 2 1 3 4 2 1 1 3 2 2 1 1 1 1 3 2 1 0 0 1 1 1 1 2 3 2 3 3 4 2 1 1 4 1 1 3 1 4 2 3 2 7 3 1 5 12 4 11 11 2 12 6 15 17 18 14 9 13 17 18 15 15 16 15 15
1 1 1 1 2 2 3 3 2 4 4 4 3 7 6 3 6 2 3 3 1 4 1 4 3 5 1 3 2 0 3 1 2 1 2 1 1 4 2 1 4 0 1 3 1 3 2 7 5 6 0 0 2 4 6 4 4 3 1 4 4 3 6 6 3 4 4 6 9 6 17 19 12 11 7 17 17 17 15 13 16 18 17 17 17 17 17 18
2 0 2 2 3 3 2 2 3 3 3 3 7 9 1 3 2 2 2 3 0 1 2 3 6 6 4 2 2 4 0 2 3 1 2 3 1 4 4 2 2 4 1 2 4 2 3 5 2 2 4 1 1 3 4 5 6 4 5 2 3 3 4 5 7 3 4 8 7 9 17 16 6 7 10 17 18 16 14 15 19 20 18 18 19 18 18 19
1 1 3 1 1 2 2 2 2 4 3 2 5 3 3 5 0 2 6 5 1 3 2 5 4 1 3 1 2 1 2 3 0 2 1 1 1 3 3 5 2 2 1 3 1 1 1 3 4 2 2 3 0 4 3 2 2 1 3 4 1 5 3 1 2 3 2 9 6 14 10 15 5 4 13 19 15 14 13 17 19 19 18 19 16 19 18 18
1 0 4 1 1 0 2 2 3 3 3 8 5 6 2 1 3 2 2 5 3 3 5 2 3 4 2 3 4 3 1 1 3 3 3 2 1 1 3 2 4 0 2 1 1 1 1 2 5 2 5 4 4 1 2 6 1 2 5 1 3 0 3 5 3 7 5 4 3 6 15 12 5 11 14 16 15 11 14 19 17 18 19 18 18 19 19 16
0 1 3 1 2 1 2 2 2 4 5 2 1 3 0 3 1 1 3 4 1 1 4 3 4 6 3 2 4 3 2 3 3 4 4 2 4 3 2 5 2 1 0 1 2 1 1 1 6 1 6 2 4 3 3 5 8 7 7 5 6 1 3 4 10 2 2 3 2 4 15 20 3 3 11 12 12 12 15 16 19 19 20 20 19 20 19 18
3 3 3 2 2 3 4 3 2 1 1 6 7 4 2 2 1 2 2 0 3 3 2 1 2 2 3 4 3 4 4 4 5 2 3 6 1 3 2 5 4 2 4 3 3 2 3 1 1 7 5 6 3 5 3 3 5 7 7 2 4 2 5 1 5 5 4 5 3 9 10 19 10 6 7 8 13 16 14 16 18 18 20 18 18 19 19 20
3 6 1 3 1 2 3 4 1 1 4 5 3 2 2 1 4 3 4 2 1 4 1 3 6 5 5 4 3 4 6 4 7 6 4 1 3 4 5 8 5 4 2 1 2 3 3 2 1 6 2 1 7 4 7 5 4 0 2 5 3 2 3 5 5 7 8 8 2 4 12 18 9 3 5 11 15 15 15 15 18 18 18 20 19 19 23 23
3 2 2 2 3 2 3 11 6 8 7 2 1 3 2 2 5 3 4 4 5 3 4 3 2 4 2 1 3 6 6 1 3 7 0 3 3 4 3 4 5 3 4 2 3 3 2 3 5 4 5 1 6 4 3 2 1 1 3 4 4 3 3 5 4 3 1 8 11 7 15 14 7 8 14 13 14 17 19 18 14 20 21 20 19 19 20 21
1 0 1 1 1 2 9 4 8 6 7 8 5 8 4 1 6 8 7 5 2 3 3 3 3 3 1 1 2 1 4 5 0 1 4 3 3 1 5 1 4 2 1 3 1 2 2 4 2 2 5 9 10 6 4 4 4 4 3 3 3 4 4 3 2 2 6 6 11 6 10 16 18 15 17 17 18 16 15 18 17 18 21 23 20 21 21 21
4 4 2 2 1 2 4 1 0 5 5 4 5 6 5 6 0 3 5 3 6 1 1 3 1 2 2 2 3 4 6 1 3 2 4 4 2 2 5 5 5 4 2 1 1 2 1 1 3 6 6 8 9 6 1 4 4 7 13 15 9 2 3 2 1 1 6 11 13 13 12 21 20 18 20 21 17 19 20 18 19 21 22 20 20 23 26 27
1 6 6 3 1 7 6 1 3 2 7 6 5 4 9 11 3 1 7 3 3 6 1 3 4 5 4 4 4 3 1 1 2 3 4 5 1 2 2 7 2 6 6 1 4 5 2 0 6 6 9 9 7 10 6 3 3 7 10 18 13 7 4 3 4 8 10 8 17 9 14 17 19 18 18 19 20 17 17 17 19 18 17 22 23 30 32 32
5 4 6 5 7 6 7 10 10 10 4 7 7 4 5 7 5 5 1 3 3 1 5 1 3 6 9 11 6 4 4 3 3 3 3 0 2 0 1 1 2 3 2 1 1 3 4 2 6 3 11 8 6 10 11 3 4 7 12 17 15 13 10 7 7 11 8 6 16 19 19 18 19 16 19 19 18 19 20 20 17 19 22 26 28 30 29 28
2 3 3 1 7 5 12 7 15 17 15 12 5 7 6 10 12 8 5 2 3 3 7 6 7 11 7 6 7 5 7 4 4 3 4 3 6 4 1 1 0 3 1 1 1 1 4 3 6 4 6 2 4 8 5 4 3 8 15 16 14 13 14 12 12 12 12 14 19 20 20 20 17 16 15 17 19 18 19 16 13 22 27 27 26 30 26 29
9 10 6 2 1 1 2 6 10 12 14 15 11 11 8 12 13 5 2 7 4 4 2 8 5 8 8 8 7 7 10 8 7 8 6 7 1 3 2 4 3 2 3 1 2 5 6 5 6 1 1 3 7 8 4 5 5 9 18 16 13 13 12 13 10 11 10 13 16 18 19 18 10 11 15 17 18 19 20 18 18 24 29 29 28 27 27 28
1 5 5 8 7 5 2 4 8 13 9 7 12 10 6 11 14 12 6 3 8 7 7 13 7 5 3 7 9 8 4 6 5 7 11 12 8 6 7 2 7 5 5 1 0 3 2 4 3 2 2 5 2 5 4 4 6 12 16 15 15 13 9 7 4 4 3 13 17 17 15 13 13 13 15 16 22 23 21 22 22 23 25 29 26 28 32 32
3 3 1 6 9 8 10 4 3 7 13 13 13 12 10 15 8 8 5 3 5 2 8 9 8 8 4 8 11 11 6 6 4 2 9 5 5 5 2 3 6 8 6 5 2 3 2 3 1 1 2 5 3 5 1 1 3 8 12 12 14 11 10 11 10 6 8 10 10 11 13 13 17 15 18 21 22 22 24 22 23 24 22 20 26 32 32 33
Wind_Direction
1 358 355 353 350 344 338 336 334 333 333 334 336 338 343 346 343 339 342 337 333 329 327 330 339 337 335 338 338 347 351 93 59 41 58 222 267 284 305 313 313 310 336 24 8 50 332 7 3 344 31 55 324 49 277 57 68 54 70 114 166 206 147 201 186 188 216 308 299 321 157 351 305 27 277 356 292 238 284 267 269 272 250 238 276 355 138 239
357 355 353 351 348 343 338 335 334 334 334 333 335 337 342 344 340 340 345 342 337 330 328 327 332 334 328 331 345 353 41 63 82 75 75 353 332 323 317 313 316 319 309 24 46 57 54 338 337 26 39 50 318 89 21 315 60 88 117 98 242 177 242 159 194 201 328 285 289 293 283 218 268 20 297 340 289 342 316 294 176 252 262 261 276 275 280 278
355 354 353 350 348 343 339 337 334 335 336 334 332 336 340 339 340 341 337 336 335 324 324 323 324 327 331 341 328 45 330 17 40 29 291 333 327 327 326 317 320 333 35 291 237 112 33 247 286 33 12 258 17 280 23 342 26 333 127 243 248 211 249 224 181 222 200 318 302 306 321 122 278 336 360 254 305 310 285 290 323 311 299 304 258 288 289 296
356 354 353 352 348 345 341 337 336 336 334 332 329 333 337 336 339 339 334 329 332 325 324 322 318 324 334 340 330 96 90 60 48 284 287 313 333 338 333 326 329 342 289 48 129 86 110 77 44 50 8 52 319 34 28 336 51 272 88 190 236 199 336 271 192 237 238 180 276 283 298 309 294 286 61 300 344 301 263 244 220 271 288 294 297 291 300 282
357 356 354 352 349 345 342 339 336 334 333 331 329 328 332 336 339 340 337 337 334 327 322 320 320 317 324 352 130 113 91 56 267 260 279 326 346 343 340 338 347 24 85 135 57 44 59 58 55 33 60 316 358 4 28 353 100 113 213 208 156 173 275 248 198 186 170 217 237 291 316 280 329 287 205 172 229 274 299 299 217 258 279 282 298 305 315 292
0 358 356 352 348 345 343 340 335 332 330 327 329 327 329 329 338 342 342 342 337 330 324 323 321 320 326 27 98 81 82 79 266 331 334 346 346 340 344 6 6 88 77 39 75 8 46 354 56 22 360 33 5 43 304 102 353 313 303 277 241 218 245 254 122 184 131 296 281 299 270 330 289 289 246 179 221 258 270 278 294 283 281 297 300 295 299 291
3 359 355 352 348 344 341 336 332 330 328 329 326 327 326 331 332 345 345 344 338 327 330 324 324 328 326 95 79 79 91 165 342 286 359 345 342 336 353 29 44 52 65 55 18 65 18 38 67 216 72 43 321 175 294 335 1 142 258 293 292 175 213 233 274 171 212 189 250 229 328 306 293 309 83 175 242 249 273 284 299 298 316 330 308 297 280 286
4 359 354 350 345 342 337 334 332 328 327 324 326 326 326 326 337 344 346 342 333 327 326 331 326 329 340 44 51 17 44 308 273 3 338 329 359 342 124 39 30 59 55 75 3 36 86 46 36 155 60 72 236 160 336 330 26 162 271 291 282 271 227 213 239 260 246 239 248 333 318 270 253 264 351 281 247 258 263 303 312 347 328 325 313 307 306 294
3 357 349 344 342 336 333 332 328 327 325 325 326 324 325 325 333 342 345 336 327 326 332 333 327 331 351 80 103 74 355 249 191 312 330 353 350 21 37 21 5 74 125 64 29 128 94 275 58 180 277 360 135 15 318 10 327 201 234 324 302 294 294 309 274 253 223 231 181 130 242 268 286 300 243 260 276 258 325 338 345 346 342 325 319 319 315 305
360 352 344 344 342 336 330 329 327 325 324 323 322 324 325 329 332 340 340 331 323 326 335 336 340 325 48 75 35 81 276 113 332 324 350 352 24 54 49 78 37 79 72 330 32 47 64 225 127 200 132 85 153 238 147 80 259 159 279 277 288 285 314 348 28 280 297 219 163 163 253 271 304 15 293 296 256 309 344 351 342 350 322 314 312 314 308 301
355 350 347 345 341 333 331 329 326 324 323 325 323 322 325 326 332 336 334 329 318 324 336 353 351 37 48 74 98 89 259 55 339 6 3 9 47 44 11 345 21 75 104 36 95 212 230 160 164 134 44 224 120 293 164 224 164 323 269 311 299 307 295 240 358 82 332 325 181 156 243 273 316 129 242 258 303 354 353 335 339 324 308 303 303 304 297 302
353 351 349 345 338 331 330 331 327 325 325 324 321 317 316 325 335 334 331 327 313 322 5 13 16 97 70 71 69 85 327 235 10 26 38 24 43 71 182 126 40 127 113 129 261 261 170 155 129 75 248 128 316 90 315 247 24 283 26 311 316 335 333 22 7 333 359 308 154 192 214 326 318 219 253 277 331 352 337 322 323 309 292 291 289 297 309 318
350 352 350 344 337 330 330 329 328 327 327 324 319 316 316 329 336 332 325 329 303 344 52 33 18 65 82 40 323 246 317 246 61 29 14 34 110 78 80 68 73 98 141 129 225 10 133 154 118 81 170 94 180 3 181 71 297 35 50 136 336 355 330 300 307 25 352 321 4 2 328 165 253 250 268 307 10 343 334 336 348 338 327 306 305 318 330 344
348 349 347 341 334 329 324 329 330 331 329 324 322 315 315 325 339 323 320 308 330 58 69 57 76 57 80 174 282 252 262 144 32 29 6 319 34 333 31 16 46 32 15 108 55 114 131 37 97 107 114 82 302 304 214 337 13 265 274 75 74 351 273 316 338 313 4 307 13 44 314 303 239 252 271 347 24 352 334 335 339 342 346 349 357 5 11 13
347 348 347 342 332 323 323 328 328 333 330 327 320 313 314 326 338 313 313 323 20 87 111 54 48 49 55 336 254 301 157 135 40 336 310 22 10 335 330 11 21 8 4 75 133 30 101 86 86 41 360 315 347 23 321 17 359 356 32 325 322 41 290 314 334 37 10 323 359 1 273 272 297 290 260 19 36 29 336 331 332 339 358 18 30 37 36 29
349 349 344 336 328 327 327 330 331 333 334 326 319 315 315 325 333 311 325 128 76 89 97 56 6 97 96 41 237 155 45 46 331 315 319 66 51 333 283 289 194 4 21 22 58 81 46 80 67 185 297 24 42 65 13 31 343 1 72 285 297 304 292 330 336 97 111 334 5 66 289 315 308 315 323 358 358 5 322 324 329 353 28 38 39 41 39 31
350 349 342 335 331 331 331 334 337 337 328 325 320 314 318 326 323 329 113 70 30 2 63 57 69 12 67 254 260 36 333 288 273 348 345 37 83 241 339 13 21 358 9 53 26 19 2 65 273 2 44 97 177 78 42 25 336 316 21 312 274 307 324 315 306 45 7 34 316 317 242 265 274 301 328 335 358 345 340 344 345 26 47 38 35 33 32 31
351 349 342 335 333 333 332 338 342 336 327 323 318 310 305 315 335 168 320 31 6 70 85 87 114 40 50 21 39 319 324 290 343 296 253 274 90 40 45 3 323 76 58 29 347 74 331 57 32 172 7 29 28 29 71 303 254 274 308 323 311 241 216 264 312 286 6 92 295 302 293 292 292 307 322 319 10 2 339 342 15 43 45 36 33 29 23 27
353 348 341 336 333 333 336 342 345 334 330 318 307 316 310 58 24 74 56 347 33 350 33 339 14 67 204 291 277 287 303 240 291 358 321 14 340 114 69 104 65 34 342 47 304 46 348 44 24 37 10 345 356 67 125 227 189 249 250 265 273 309 301 260 260 299 20 328 319 319 313 308 306 329 331 333 1 15 325 9 47 43 39 31 26 22 23 23
353 347 341 334 331 331 338 346 342 334 339 342 352 360 12 9 5 337 346 35 71 127 227 282 224 265 310 317 317 284 250 17 145 343 312 280 331 338 18 70 4 67 61 28 313 54 275 44 74 60 315 294 276 202 214 234 210 261 265 253 281 290 294 245 251 304 342 339 317 320 312 304 301 335 326 332 350 350 341 51 64 42 36 34 27 27 23 26
350 345 338 335 330 330 338 346 344 337 349 355 353 46 47 307 50 316 320 284 253 109 75 253 199 214 255 282 276 8 59 300 97 349 341 193 95 118 333 23 14 25 356 245 246 304 63 36 319 220 237 258 271 207 131 44 39 282 300 323 312 308 295 310 306 52 342 27 299 318 314 300 304 334 321 340 356 338 15 64 60 44 34 32 34 33 32 21
347 342 339 333 327 331 339 344 355 340 19 35 52 77 100 152 230 241 110 319 328 222 277 254 357 295 309 228 266 147 91 60 15 355 314 19 313 54 323 80 77 30 323 344 3 14 5 325 237 223 215 104 65 98 61 175 298 320 287 313 326 307 291 292 180 11 19 359 300 319 308 293 308 341 313 344 49 28 65 80 59 38 33 29 32 34 27 21
347 340 334 331 327 331 337 342 22 18 22 25 38 60 123 228 301 287 77 160 279 274 21 47 262 302 321 269 271 139 68 57 339 337 334 14 15 74 315 39 10 311 1 27 55 8 2 293 246 225 148 111 38 68 66 37 50 307 323 346 305 324 13 321 319 335 319 176 258 277 277 287 312 320 302 60 122 64 81 65 42 31 29 27 27 27 25 19
343 338 332 331 329 330 331 360 37 34 42 74 74 57 223 166 192 141 87 182 297 313 208 222 193 222 262 32 230 100 76 249 67 336 337 38 80 211 75 106 23 42 310 333 60 207 240 257 358 85 63 82 343 335 14 30 324 319 235 267 324 339 326 257 303 321 316 312 187 317 301 288 320 339 319 2 63 67 49 45 33 23 29 27 28 33 30 22
341 335 332 330 330 327 328 6 38 64 199 19 72 178 175 180 213 184 107 324 21 299 199 343 119 254 212 52 2 294 212 76 102 235 294 40 353 34 50 192 94 261 204 231 19 347 291 272 202 51 47 51 47 351 7 30 325 322 255 137 318 310 323 323 318 336 327 323 121 43 315 293 314 358 309 346 74 61 37 46 29 18 19 16 24 19 13 14
338 333 334 332 331 329 316 52 7 116 97 67 281 140 183 154 155 131 96 70 307 269 1 230 155 220 146 271 11 172 107 54 228 268 360 326 226 125 94 22 116 304 213 340 288 224 236 341 72 56 62 32 54 26 271 171 259 44 293 138 355 307 309 309 316 349 311 304 298 76 284 295 308 323 302 339 77 85 46 44 29 20 14 21 20 15 11 1
334 334 335 336 339 333 57 304 132 156 22 323 241 208 186 102 221 180 11 352 21 234 171 234 93 255 101 267 9 113 12 166 14 2 22 315 348 315 21 278 7 43 151 158 38 300 13 308 28 40 61 62 27 13 308 105 83 308 176 22 332 342 326 311 305 269 261 272 308 135 196 258 296 350 224 31 84 48 38 27 22 14 8 13 1 8 1 354
331 335 336 341 354 14 122 113 53 63 168 310 4 79 84 246 124 25 69 6 298 13 40 270 226 345 68 315 46 119 241 289 43 261 213 300 124 333 60 240 194 237 231 79 276 252 112 326 36 25 54 44 347 219 292 172 185 235 318 33 318 310 286 282 274 276 258 342 307 20 238 335 256 255 351 338 36 18 31 15 5 4 2 1 5 344 349 345
331 335 336 342 359 43 53 96 99 107 24 326 60 76 40 61 86 90 96 186 224 78 116 71 338 26 333 336 30 356 351 18 193 230 315 309 51 176 34 261 152 88 355 166 210 284 293 135 104 114 114 344 233 324 233 93 40 293 309 275 236 252 253 244 253 269 303 359 299 294 294 274 280 299 338 356 64 23 3 3 354 355 357 356 2 346 342 340
328 335 339 342 7 359 2 21 73 170 270 73 102 106 57 28 40 37 5 250 47 267 135 249 125 265 30 38 312 357 79 335 97 317 29 131 331 27 59 61 133 44 176 8 207 228 259 303 183 90 147 194 153 80 150 75 107 268 37 357 340 310 251 248 240 232 1 276 168 173 144 87 299 316 142 58 65 5 347 348 353 355 3 7 356 352 347 345
326 332 350 5 99 262 112 38 222 199 157 128 121 101 106 39 94 107 236 226 55 239 11 18 259 25 38 66 299 318 66 345 334 27 337 12 350 39 13 82 39 44 33 1 6 314 336 14 82 327 36 135 107 94 3 18 275 34 21 7 326 320 345 290 347 331 347 277 159 244 68 23 292 337 67 114 99 43 20 359 349 353 1 354 345 341 339 338
313 338 21 68 185 235 114 213 207 157 154 149 120 64 60 314 20 162 221 326 345 288 127 269 28 105 73 8 153 327 350 337 11 47 45 32 42 27 356 98 6 14 340 5 300 354 342 42 340 334 256 95 87 74 313 5 25 20 12 8 31 301 353 325 71 340 228 269 287 17 7 329 226 269 99 89 27 10 3 347 357 2 352 345 347 346 340 336
304 342 91 85 127 106 98 146 209 195 134 139 90 59 48 84 291 242 264 355 253 61 281 78 245 3 156 35 268 304 240 192 314 75 129 97 101 41 300 109 241 179 250 280 278 16 285 262 342 297 14 351 118 79 342 11 18 31 37 344 66 349 5 302 300 221 274 253 242 323 315 241 278 244 98 86 79 331 359 2 2 4 358 347 338 330 326 324
322 36 143 164 188 242 228 172 235 137 131 108 76 26 47 81 243 215 248 234 247 12 25 55 328 45 28 216 247 150 337 214 66 328 36 242 63 116 324 313 59 13 94 261 159 188 352 341 273 50 283 334 57 125 174 187 144 163 203 128 168 158 232 289 292 305 303 302 307 317 346 214 32 262 180 169 261 1 6 5 6 1 339 331 324 316 313 318
76 78 126 140 211 218 191 223 190 155 103 68 51 106 234 253 237 238 229 283 279 321 221 324 241 46 300 323 293 274 174 318 123 162 28 82 248 132 169 299 325 131 205 64 239 95 213 227 307 326 227 104 94 231 141 107 99 203 163 97 67 236 151 197 218 304 311 307 308 335 262 278 288 180 82 355 8 5 2 352 350 338 330 321 320 317 318 317
114 309 171 133 209 170 174 200 206 105 104 62 92 211 215 195 263 164 249 158 80 205 267 342 158 287 251 295 323 87 326 153 319 81 310 64 150 130 156 185 276 222 185 149 211 30 37 285 226 276 4 74 340 246 329 145 87 261 70 231 214 166 156 276 342 279 277 296 256 307 288 285 35 320 11 357 2 346 348 344 336 331 327 323 319 321 315 315
51 33 237 249 245 195 183 200 153 101 75 93 131 252 209 271 206 166 228 171 230 135 65 331 275 177 271 265 200 44 248 38 247 75 277 162 301 142 147 191 163 299 219 140 328 170 146 251 232 187 39 275 231 131 78 13 133 65 68 223 276 164 138 116 192 294 259 226 277 307 290 303 343 306 31 351 341 339 337 334 331 327 328 323 321 319 319 314
117 44 263 261 229 199 190 180 106 63 83 128 218 235 157 216 201 159 126 92 50 58 136 163 271 142 273 164 287 178 302 155 291 74 252 179 246 135 133 161 168 169 272 300 131 263 107 333 279 328 152 226 5 67 41 30 40 139 188 228 83 334 333 303 98 340 311 284 290 275 299 285 237 269 10 333 336 331 331 332 329 327 327 323 317 315 311 310
67 78 291 243 238 187 166 123 88 90 98 179 219 271 237 224 181 168 194 143 127 128 191 233 213 283 134 225 204 3 167 190 140 196 33 220 107 161 154 147 209 170 270 156 88 188 345 156 301 175 141 205 111 74 272 295 329 35 29 28 45 92 233 99 274 195 206 277 35 290 332 284 95 265 344 323 325 324 333 330 323 321 321 317 314 312 310 309
123 32 270 233 237 360 147 116 61 69 104 212 194 221 171 256 239 244 222 159 226 137 236 191 240 250 180 210 155 172 243 159 160 241 159 285 125 120 156 340 162 286 50 357 131 84 270 110 238 227 258 32 333 116 226 141 187 349 34 344 3 333 204 161 227 140 183 189 193 296 306 281 90 352 323 315 316 326 332 322 316 317 315 311 308 307 305 302
258 215 262 209 234 132 115 65 107 172 197 266 185 220 164 210 177 237 205 205 207 247 198 199 167 205 188 118 263 148 201 182 189 182 189 260 147 283 169 164 157 130 272 23 69 170 60 115 198 230 329 213 226 237 170 167 160 159 153 195 164 201 26 14 296 120 104 101 228 269 264 278 34 358 301 312 314 321 323 316 312 313 310 307 306 302 301 300
124 240 261 179 266 138 107 150 236 121 157 192 222 172 231 152 141 224 162 277 193 227 47 124 238 173 150 209 162 180 160 200 201 180 254 193 289 134 198 139 160 164 120 192 172 228 147 131 137 267 212 240 250 282 231 164 139 145 137 204 169 191 114 128 292 287 340 261 220 234 273 271 82 320 299 299 314 315 314 311 308 308 305 302 300 298 295 297
172 229 273 244 285 141 102 226 111 171 211 240 344 271 106 261 173 186 159 189 201 165 176 194 200 172 249 171 199 173 167 217 162 216 169 245 208 194 184 163 159 103 114 248 32 198 80 102 20 282 307 324 17 338 29 57 98 144 325 90 94 180 216 207 195 255 281 292 274 269 247 273 332 310 277 309 307 309 311 309 308 306 303 302 302 299 303 305
194 206 247 226 134 193 151 220 209 218 241 285 194 247 209 214 170 180 206 204 181 172 186 185 350 223 190 137 147 183 178 189 201 153 226 156 199 139 161 124 200 203 125 238 129 235 60 283 122 312 338 75 82 27 6 310 85 72 224 225 165 197 239 226 217 215 162 244 243 241 269 290 292 319 303 301 306 309 312 310 309 309 307 305 304 304 307 310
132 255 81 294 71 169 209 216 215 204 207 221 202 235 190 259 213 203 176 207 160 171 121 236 184 142 146 171 170 86 223 193 24 250 111 166 182 84 267 199 307 204 261 255 143 44 139 228 98 275 278 311 312 314 292 275 275 252 212 210 207 192 224 46 347 318 270 257 261 239 270 274 292 304 301 307 309 305 302 308 311 306 307 310 314 315 315 314
187 237 143 332 186 323 265 87 255 190 191 179 227 237 156 229 289 268 169 241 168 156 139 125 357 74 122 138 166 201 201 291 173 204 155 177 186 279 206 232 206 231 254 176 113 100 167 342 166 175 170 214 244 255 337 71 342 310 297 290 278 200 214 174 116 216 246 280 283 273 262 285 299 311 310 312 314 313 316 317 318 316 315 316 318 318 316 312
256 230 146 204 48 236 244 105 212 160 219 158 220 164 203 212 186 316 176 223 193 157 131 174 167 147 224 143 194 201 205 140 19 105 193 150 212 211 310 189 229 235 252 244 133 78 76 323 242 217 235 231 238 262 273 92 248 276 290 286 293 296 261 177 185 236 248 298 280 279 289 296 301 308 308 309 312 312 310 313 318 316 319 326 319 312 310 309
213 236 166 183 174 197 195 243 207 215 237 173 232 130 200 189 190 207 106 222 83 206 156 289 172 223 174 178 149 183 163 185 132 198 67 111 79 262 323 69 171 329 128 38 20 122 135 182 276 220 252 238 251 264 273 288 245 247 259 271 287 293 292 280 259 256 264 232 267 292 294 294 297 301 306 304 308 311 312 318 322 320 321 317 314 313 312 308
189 321 231 112 212 209 201 191 178 200 207 195 232 175 201 189 210 198 170 150 170 233 186 217 206 209 194 172 169 189 158 124 254 156 173 173 177 126 215 351 215 93 72 54 37 116 76 265 223 252 274 272 235 250 260 240 235 269 265 264 272 277 276 274 273 274 268 267 272 281 288 288 297 301 300 304 308 312 316 321 330 326 320 315 313 316 310 311
202 188 219 319 1 6 173 135 180 182 213 200 207 212 198 209 217 183 267 159 186 233 119 225 180 190 183 189 191 189 198 192 164 181 186 138 191 176 231 188 132 92 120 120 115 291 104 273 95 272 307 247 220 242 234 208 223 256 264 270 272 270 276 270 260 265 262 265 276 287 295 296 291 294 310 312 313 317 319 331 339 321 318 316 316 314 315 318
228 214 139 143 203 217 145 168 163 186 204 195 214 217 195 208 223 191 212 185 191 183 183 208 164 150 172 190 209 218 185 182 155 181 167 164 177 195 142 265 139 153 147 96 86 298 117 250 64 80 359 295 178 169 223 176 215 244 266 281 283 281 285 273 244 235 281 279 289 301 305 305 312 319 314 315 317 323 324 332 330 324 320 317 313 320 320 319
74 339 160 132 216 172 184 146 137 126 222 204 194 202 193 212 206 157 238 212 214 200 178 180 180 149 202 189 210 206 174 142 143 156 158 100 102 100 94 165 157 151 164 156 161 149 162 152 36 42 353 260 141 102 198 205 242 276 260 241 244 254 251 266 270 255 234 266 296 302 290 302 309 318 321 323 326 321 324 333 329 314 311 307 320 321 318 321